Tracking 17145 objects as of 23-May-2015
HD Live streaming from Space Station

ARIANE 44L+3 R/B

Track ARIANE 44L+3 R/B now!
ARIANE 44L+3 R/B is classified as:


NORAD ID: 23866
Int'l Code: 1996-030C
Perigee: 286.8 km
Apogee: 31,178.1 km
Inclination: 4.0 °
Period: 545.1 minutes
Semi major axis: 22103 km
RCS: 20.3809 m2 (large)
Launch date: May 16, 1996
Source: France (FR)

Note: This is a ROCKET BODY
Your satellite tracking list
Your tracking list is empty





NASA's NSSDC Master Catalog

Two Line Element Set (TLE):
1 23866U 96030C   15142.79940921  .00006225  00000-0  24666-2 0  9998
2 23866 004.0431 189.2722 6987869 269.6760 254.0557 02.64187870170840

Source of the keplerian elements: AFSPC

N2YO: 313